TimeCST,TemperatureF,Dew PointF,Humidity,Sea Level PressureIn,VisibilityMPH,Wind Direction,Wind SpeedMPH,Gust SpeedMPH,PrecipitationIn,Events,Conditions,WindDirDegrees,DateUTC
12:15 AM,37.4,35.6,93,30.03,1.8,NW,5.8,-,N/A,,Overcast,310,2013-01-01 06:15:00
12:55 AM,37.4,35.6,93,30.02,2.5,NNW,4.6,-,N/A,,Overcast,340,2013-01-01 06:55:00
1:15 AM,37.4,35.6,93,30.02,3.0,NW,5.8,-,N/A,,Overcast,320,2013-01-01 07:15:00
1:35 AM,37.4,35.6,93,30.02,3.0,NNW,3.5,-,N/A,,Overcast,330,2013-01-01 07:35:00
1:55 AM,37.4,35.6,93,30.02,5.0,NNW,4.6,-,N/A,,Overcast,330,2013-01-01 07:55:00
2:35 AM,37.4,33.8,87,30.02,4.0,North,5.8,-,N/A,,Overcast,350,2013-01-01 08:35:00
2:55 AM,37.4,33.8,87,30.02,3.0,NNW,3.5,-,N/A,,Overcast,340,2013-01-01 08:55:00
3:15 AM,37.4,35.6,93,30.02,5.0,NNW,4.6,-,N/A,,Overcast,340,2013-01-01 09:15:00
3:35 AM,37.4,33.8,87,30.03,7.0,North,3.5,-,N/A,,Overcast,350,2013-01-01 09:35:00
3:55 AM,37.4,33.8,87,30.02,7.0,North,4.6,-,N/A,,Overcast,360,2013-01-01 09:55:00
4:15 AM,37.4,33.8,87,30.02,8.0,North,8.1,-,N/A,,Overcast,360,2013-01-01 10:15:00
5:15 AM,35.6,33.8,93,30.06,2.5,North,3.5,-,N/A,,Overcast,360,2013-01-01 11:15:00
5:35 AM,35.6,33.8,93,30.07,2.0,North,4.6,-,N/A,,Overcast,350,2013-01-01 11:35:00
5:55 AM,35.6,33.8,93,30.06,1.5,North,5.8,-,N/A,,Overcast,360,2013-01-01 11:55:00
6:15 AM,35.6,33.8,93,30.08,1.0,North,6.9,-,N/A,,Overcast,350,2013-01-01 12:15:00
6:55 AM,35.6,32.0,87,30.09,1.2,NNE,6.9,-,N/A,,Overcast,20,2013-01-01 12:55:00
7:15 AM,35.6,32.0,87,30.09,1.2,North,11.5,-,N/A,,Overcast,360,2013-01-01 13:15:00
7:35 AM,33.8,32.0,93,30.08,1.8,NNE,9.2,-,N/A,,Overcast,30,2013-01-01 13:35:00
7:55 AM,33.8,30.2,87,30.06,1.2,NNE,12.7,-,N/A,,Overcast,20,2013-01-01 13:55:00
8:15 AM,33.8,30.2,87,30.08,1.0,NNE,12.7,-,N/A,,Overcast,30,2013-01-01 14:15:00
8:35 AM,33.8,30.2,87,30.10,0.8,NNE,11.5,-,N/A,,Overcast,20,2013-01-01 14:35:00
8:55 AM,33.8,30.2,87,30.13,2.0,North,8.1,-,N/A,,Overcast,10,2013-01-01 14:55:00
9:15 AM,33.8,30.2,87,30.12,0.5,North,6.9,-,N/A,,Overcast,10,2013-01-01 15:15:00
9:35 AM,33.8,30.2,87,30.14,1.2,North,8.1,-,N/A,,Overcast,10,2013-01-01 15:35:00
9:55 AM,33.8,30.2,87,30.15,1.8,NE,5.8,-,N/A,,Overcast,40,2013-01-01 15:55:00
10:15 AM,33.8,30.2,87,30.15,1.5,NE,6.9,-,N/A,,Overcast,40,2013-01-01 16:15:00
10:35 AM,33.8,30.2,87,30.16,1.2,North,8.1,-,N/A,,Overcast,10,2013-01-01 16:35:00
10:55 AM,33.8,30.2,87,30.17,1.0,North,8.1,-,N/A,,Overcast,360,2013-01-01 16:55:00
11:35 AM,32.0,30.2,93,30.16,1.2,North,6.9,-,N/A,,Overcast,10,2013-01-01 17:35:00
11:55 AM,32.0,30.2,93,30.14,1.2,North,9.2,-,N/A,,Overcast,360,2013-01-01 17:55:00
12:15 PM,32.0,28.4,87,30.13,1.8,North,8.1,-,N/A,,Overcast,10,2013-01-01 18:15:00
12:35 PM,32.0,28.4,87,30.13,2.0,North,9.2,-,N/A,,Overcast,360,2013-01-01 18:35:00
1:35 PM,30.2,28.4,93,30.14,1.5,North,9.2,-,N/A,,Overcast,350,2013-01-01 19:35:00
1:55 PM,30.2,26.6,86,30.14,2.0,North,8.1,-,N/A,,Overcast,350,2013-01-01 19:55:00
2:15 PM,30.2,26.6,86,30.15,2.0,North,9.2,-,N/A,,Overcast,350,2013-01-01 20:15:00
2:35 PM,30.2,26.6,86,30.16,2.0,North,10.4,-,N/A,,Overcast,360,2013-01-01 20:35:00
3:15 PM,30.2,26.6,86,30.16,3.0,North,9.2,-,N/A,,Overcast,350,2013-01-01 21:15:00
3:35 PM,30.2,26.6,86,30.16,2.5,North,9.2,-,N/A,,Mostly Cloudy,360,2013-01-01 21:35:00
4:35 PM,30.2,26.6,86,30.18,5.0,North,6.9,-,N/A,,Overcast,10,2013-01-01 22:35:00
4:55 PM,30.2,26.6,86,30.18,5.0,North,8.1,-,N/A,,Overcast,10,2013-01-01 22:55:00
5:15 PM,28.4,24.8,86,30.17,5.0,North,6.9,-,N/A,,Overcast,10,2013-01-01 23:15:00
5:35 PM,28.4,24.8,86,30.18,7.0,North,6.9,-,N/A,,Overcast,10,2013-01-01 23:35:00
6:15 PM,28.4,24.8,86,30.19,7.0,North,5.8,-,N/A,,Overcast,10,2013-01-02 00:15:00
6:35 PM,28.4,24.8,86,30.19,6.0,North,4.6,-,N/A,,Overcast,10,2013-01-02 00:35:00
6:55 PM,28.4,24.8,86,30.19,6.0,North,4.6,-,N/A,,Overcast,360,2013-01-02 00:55:00
7:15 PM,28.4,24.8,86,30.20,6.0,North,4.6,-,N/A,,Overcast,350,2013-01-02 01:15:00
7:55 PM,28.4,24.8,86,30.22,7.0,NNW,5.8,-,N/A,,Overcast,340,2013-01-02 01:55:00
8:15 PM,28.4,24.8,86,30.22,7.0,NNW,5.8,-,N/A,,Overcast,340,2013-01-02 02:15:00
8:35 PM,28.4,23.0,80,30.20,8.0,North,8.1,-,N/A,,Overcast,350,2013-01-02 02:35:00
8:55 PM,26.6,23.0,86,30.19,8.0,North,5.8,-,N/A,,Overcast,360,2013-01-02 02:55:00
9:35 PM,26.6,23.0,86,30.21,8.0,North,4.6,-,N/A,,Overcast,350,2013-01-02 03:35:00
9:55 PM,26.6,23.0,86,30.21,7.0,North,5.8,-,N/A,,Overcast,360,2013-01-02 03:55:00
10:15 PM,26.6,23.0,86,30.21,7.0,NNW,4.6,-,N/A,,Overcast,340,2013-01-02 04:15:00
10:35 PM,26.6,23.0,86,30.22,6.0,NNW,5.8,-,N/A,,Overcast,330,2013-01-02 04:35:00
11:15 PM,24.8,21.2,86,30.20,5.0,North,6.9,-,N/A,,Overcast,10,2013-01-02 05:15:00
11:35 PM,24.8,21.2,86,30.20,5.0,North,5.8,-,N/A,,Overcast,360,2013-01-02 05:35:00
11:55 PM,24.8,21.2,86,30.21,5.0,NNW,3.5,-,N/A,,Overcast,340,2013-01-02 05:55:00